Location: New Greens
(51.7702°N, 0.3379°W)
Time: 13:05:04
(UTC+00:00)

Tiangong - Pass Details

Date: 25 June 2021
Orbit: 374 x 386 km, 41.5° (Epoch: 26 July)

Event Time Altitude Azimuth Distance (km) Brightness Sun altitude
Exits shadow 02:30:15 10° 191° (S) 1,377 3.3 -8.3°
Maximum altitude 02:31:21 12° 170° (S) 1,296 3.3 -8.2°
Drops below altitude 10° 02:32:31 10° 148° (SSE) 1,389 3.6 -8.1°
Sets 02:35:40 0° 114° (ESE) 2,247 5.1 -7.8°
